Content
SEND FEEDBACK

Daily
Averages
Monthly
Summary
United States of America

HALE CENTER, TEXAS


Home > North America > United States > Texas
Elevation: 3430 feet     Latitude: 34 04N     Longitude: 101 48W

WEATHER
 
SELECT A DAY
Number of Records: 270,046;   Date Range: 3/20/01 - 9/16/14
 
SHARE

PRINT THIS DATA

[ ← Previous Day ]
WEATHER ALMANAC - FEBRUARY 5, 2013
[ Next Day → ]
[ °C ]   °F
Weather ElementAverageHighLow
Temperature45.6 °F62.6 °F (2:55 pm)28.4 °F (7:15 am)
Dewpoint20.5 °F23 °F (8:55 am)17.6 °F (12:35 am)
Humidity40.4 %64 % (6:55 am)19 % (4:55 pm)
Barometer29.95 in29.99 in (9:55 am)29.92 in (2:55 am)
Wind Speed5.2 mph12.7 mph (9:55 am)
Weather ElementAverage
Visibility10 mi
Wind DirectionSSE (154.3 °)

Weather ElementTotal
Precipitation---
Heating Degree Days19.5 (Base 65)
Averaged from 69 records on February 5, 2013
WEATHER CONDITIONS BREAKOUT
WIND DIRECTION BREAKOUT
WEATHER BY HOUR - FEBRUARY 5, 2013
[ °C ]   °F
Local TimeTemperatureDewpointHumidityBarometerVisibilityWind DirectionWind SpeedGust SpeedPrecipitationEventsConditions
12:35 AM33.8 °F17.6 °F52 %29.95 in10.0 miCalmClear
12:55 AM33.8 °F17.6 °F52 %29.94 in10.0 miCalmClear
1:15 AM33.8 °F17.6 °F52 %29.94 in10.0 miCalmClear
1:35 AM33.8 °F19.4 °F56 %29.94 in10.0 miSSW (200°)3.5 mphClear
1:55 AM33.8 °F19.4 °F56 %29.94 in10.0 miSSW (200°)3.5 mphClear
2:15 AM33.8 °F19.4 °F56 %29.93 in10.0 miSSW (210°)3.5 mphClear
2:35 AM33.8 °F19.4 °F56 %29.93 in10.0 miSSW (200°)3.5 mphClear
2:55 AM33.8 °F19.4 °F56 %29.92 in10.0 miSSW (210°)5.8 mphClear
3:15 AM33.8 °F21.2 °F60 %29.93 in10.0 miSSW (210°)5.8 mphClear
3:35 AM33.8 °F19.4 °F56 %29.92 in10.0 miSSW (210°)8.1 mphClear
3:55 AM35.6 °F19.4 °F52 %29.92 in10.0 miSW (220°)8.1 mphClear
4:15 AM33.8 °F19.4 °F56 %29.92 in10.0 miWSW (240°)6.9 mphClear
4:35 AM32.0 °F17.6 °F55 %29.92 in10.0 miWSW (240°)6.9 mphClear
4:55 AM32.0 °F17.6 °F55 %29.92 in10.0 miWSW (240°)5.8 mphClear
5:15 AM32.0 °F19.4 °F60 %29.93 in10.0 miWest (260°)5.8 mphClear
5:35 AM32.0 °F17.6 °F55 %29.93 in10.0 miWSW (250°)4.6 mphClear
5:55 AM30.2 °F17.6 °F60 %29.93 in10.0 miWest (260°)5.8 mphClear
6:15 AM30.2 °F17.6 °F60 %29.92 in10.0 miSW (220°)5.8 mphClear
6:35 AM30.2 °F17.6 °F60 %29.93 in10.0 miWSW (250°)4.6 mphClear
6:55 AM30.2 °F19.4 °F64 %29.94 in10.0 miCalmClear
7:15 AM28.4 °F17.6 °F64 %29.95 in10.0 miWest (270°)6.9 mphClear
7:35 AM30.2 °F19.4 °F64 %29.95 in10.0 miWSW (240°)6.9 mphClear
8:15 AM30.2 °F19.4 °F64 %29.95 in10.0 miWSW (240°)6.9 mphClear
8:35 AM33.8 °F19.4 °F56 %29.96 in10.0 miWSW (240°)6.9 mphClear
8:55 AM39.2 °F23.0 °F52 %29.97 in10.0 miWSW (250°)10.4 mphClear
9:15 AM42.8 °F23.0 °F46 %29.97 in10.0 miWSW (250°)11.5 mphClear
9:35 AM50.0 °F23.0 °F35 %29.98 in10.0 miWSW (250°)11.5 mphClear
9:55 AM50.0 °F19.4 °F30 %29.99 in10.0 miWest (270°)12.7 mphClear
10:15 AM50.0 °F19.4 °F30 %29.99 in10.0 miWSW (250°)9.2 mphClear
10:35 AM50.0 °F19.4 °F30 %29.99 in10.0 miWest (270°)6.9 mphClear
10:55 AM50.0 °F19.4 °F30 %29.99 in10.0 miWest (280°)8.1 mphClear
11:15 AM51.8 °F19.4 °F28 %29.98 in10.0 miWSW (250°)6.9 mphClear
11:35 AM53.6 °F21.2 °F28 %29.98 in10.0 miWSW (250°)4.6 mphClear
11:55 AM53.6 °F19.4 °F26 %29.97 in10.0 miSW (230°)3.5 mphClear
12:15 PM55.4 °F21.2 °F26 %29.97 in10.0 miWest (270°)5.8 mphClear
12:35 PM55.4 °F21.2 °F26 %29.97 in10.0 miWest (270°)4.6 mphClear
12:55 PM57.2 °F21.2 °F25 %29.96 in10.0 miCalmClear
1:15 PM59.0 °F21.2 °F23 %29.95 in10.0 miSW (220°)4.6 mphClear
1:35 PM59.0 °F21.2 °F23 %29.95 in10.0 miWSW (240°)4.6 mphClear
1:55 PM60.8 °F21.2 °F22 %29.94 in10.0 miNW (320°)5.8 mphClear
2:15 PM60.8 °F21.2 °F22 %29.94 in10.0 miNNW (340°)4.6 mphClear
2:35 PM60.8 °F21.2 °F22 %29.94 in10.0 miWSW (240°)5.8 mphClear
2:55 PM62.6 °F23.0 °F22 %29.93 in10.0 miCalmClear
3:15 PM62.6 °F23.0 °F22 %29.92 in10.0 miSW (220°)3.5 mphClear
3:35 PM62.6 °F21.2 °F20 %29.92 in10.0 miCalmClear
3:55 PM62.6 °F21.2 °F20 %29.92 in10.0 miCalmClear
4:15 PM62.6 °F21.2 °F20 %29.92 in10.0 miEast (80°)4.6 mphClear
4:35 PM62.6 °F21.2 °F20 %29.93 in10.0 miCalmClear
4:55 PM62.6 °F19.4 °F19 %29.92 in10.0 miCalmClear
5:15 PM62.6 °F19.4 °F19 %29.93 in10.0 miCalmClear
5:35 PM62.6 °F19.4 °F19 %29.92 in10.0 miCalmClear
5:55 PM60.8 °F21.2 °F22 %29.93 in10.0 miCalmClear
6:15 PM57.2 °F21.2 °F25 %29.93 in10.0 miNE (50°)4.6 mphClear
6:35 PM55.4 °F21.2 °F26 %29.93 in10.0 miENE (60°)5.8 mphClear
6:55 PM53.6 °F23.0 °F30 %29.94 in10.0 miNE (50°)6.9 mphClear
7:15 PM50.0 °F21.2 °F32 %29.95 in10.0 miENE (60°)4.6 mphClear
7:35 PM46.4 °F21.2 °F37 %29.95 in10.0 miNE (50°)6.9 mphClear
7:55 PM46.4 °F21.2 °F37 %29.96 in10.0 miNNE (30°)5.8 mphClear
8:15 PM46.4 °F21.2 °F37 %29.96 in10.0 miNE (50°)4.6 mphClear
8:35 PM48.2 °F21.2 °F34 %29.96 in10.0 miNE (50°)5.8 mphClear
9:15 PM44.6 °F23.0 °F43 %29.97 in10.0 miENE (70°)5.8 mphClear
9:35 PM42.8 °F23.0 °F46 %29.97 in10.0 miEast (90°)8.1 mphClear
9:55 PM41.0 °F23.0 °F49 %29.98 in10.0 miEast (90°)6.9 mphClear
10:15 PM41.0 °F23.0 °F49 %29.98 in10.0 miEast (100°)8.1 mphClear
10:35 PM41.0 °F23.0 °F49 %29.98 in10.0 miESE (110°)5.8 mphClear
10:55 PM41.0 °F23.0 °F49 %29.98 in10.0 miESE (110°)5.8 mphClear
11:15 PM42.8 °F23.0 °F46 %29.97 in10.0 miEast (100°)9.2 mphClear
11:35 PM42.8 °F23.0 °F46 %29.97 in10.0 miESE (110°)10.4 mphClear
11:55 PM42.8 °F23.0 °F46 %29.97 in10.0 miESE (110°)11.5 mphClear
Hourly data recorded from KPVW, located miles away from Hale Center, Texas







STORIES FROM OUR PARTNERS